This demonstration page uses our WeatherBlox Daily Observations layout. Learn more.

Left ArrowRight Arrow

39.51506, -84.39828

Hourly Observations for January 14, 2015

Temp ( °F °C ) Dew Point ( °F °C ) Humidity (%) Winds ( mph kmh ) Pressure ( in mb ) Visibility ( mi km ) Precip ( " mm )
12:15 am 00:15 Clear 14 -9.8 9 -12.8 79 79 Calm 30.48 1032 10 16 0.00 0.00
12:35 am 00:35 Clear 14 -9.8 9 -12.7 80 80 N 5 7 30.48 1032 10 16 0.00 0.00
12:55 am 00:55 Partly Cloudy 14 -9.8 9 -12.7 80 80 Calm 30.48 1032 10 16 0.00 0.00
1:15 am 01:15 Partly Cloudy 14 -9.8 9 -12.7 80 80 NNE 3 6 30.48 1032 10 16 0.00 0.00
1:35 am 01:35 Mostly Cloudy 14 -9.8 9 -12.8 79 79 NE 6 9 30.45 1031 10 16 0.00 0.00
1:55 am 01:55 Cloudy 14 -9.8 9 -13 78 78 NNE 6 9 30.48 1032 10 16 0.00 0.00
2:15 am 02:15 Cloudy 14 -9.8 9 -13 78 78 NNE 3 6 30.45 1031 10 16 0.00 0.00
2:35 am 02:35 Cloudy 14 -9.8 8 -13.1 77 77 NE 6 9 30.45 1031 10 16 0.00 0.00
2:55 am 02:55 Cloudy 14 -9.8 8 -13.3 76 76 NE 5 7 30.45 1031 10 16 0.00 0.00
3:15 am 03:15 Cloudy 14 -9.8 8 -13.3 76 76 NE 5 7 30.45 1031 10 16 0.00 0.00
3:35 am 03:35 Cloudy 15 -9.5 8 -13.1 75 75 NNE 5 7 30.45 1031 10 16 0.00 0.00
3:55 am 03:55 Cloudy 16 -9.1 10 -12.5 77 77 ENE 6 9 30.42 1030 10 16 0.00 0.00
4:15 am 04:15 Cloudy 15 -9.7 8 -13.3 75 75 NNE 6 9 30.42 1030 10 16 0.00 0.00
4:35 am 04:35 Cloudy 16 -9.1 9 -12.7 75 75 Calm 30.42 1030 10 16 0.00 0.00
4:55 am 04:55 Cloudy 16 -9.1 9 -12.9 74 74 Calm 30.42 1030 10 16 0.00 0.00
5:15 am 05:15 Cloudy 17 -8.6 10 -12.4 74 74 Calm 30.42 1030 10 16 0.00 0.00
5:35 am 05:35 Cloudy 17 -8.5 10 -12.2 75 75 Calm 30.42 1030 10 16 0.00 0.00
5:55 am 05:55 Cloudy 17 -8.5 10 -12.3 74 74 Calm 30.42 1030 10 16 0.00 0.00
6:15 am 06:15 Cloudy 17 -8.5 10 -12.2 75 75 Calm 30.42 1030 10 16 0.00 0.00
6:35 am 06:35 Cloudy 17 -8.5 10 -12.2 75 75 Calm 30.45 1031 10 16 0.00 0.00
6:55 am 06:55 Cloudy 17 -8.5 10 -12.5 73 73 Calm 30.45 1031 10 16 0.00 0.00
7:15 am 07:15 Cloudy 17 -8.5 10 -12.5 73 73 Calm 30.42 1030 10 16 0.00 0.00
7:35 am 07:35 Cloudy 17 -8.5 10 -12.3 74 74 Calm 30.45 1031 10 16 0.00 0.00
7:55 am 07:55 Cloudy 17 -8.4 10 -12.4 73 73 Calm 30.45 1031 10 16 0.00 0.00
8:15 am 08:15 Cloudy 18 -8 10 -12 73 73 Calm 30.42 1030 10 16 0.00 0.00
8:35 am 08:35 Cloudy with Light Snow 18 -8 10 -12 73 73 Calm 30.45 1031 10 16 0.00 0.00
8:55 am 08:55 Cloudy with Light Snow 19 -7 12 -11 73 73 Calm 30.45 1031 7 11 0.00 0.00
9:15 am 09:15 Cloudy with Light Snow 19 -7 12 -11 73 73 Calm 30.45 1031 5 8 0.00 0.00
9:35 am 09:35 Cloudy with Light Snow 19 -7 12 -11 73 73 Calm 30.45 1031 5 8 0.00 0.00
9:55 am 09:55 Cloudy with Light Snow 20 -6.7 13 -10.6 74 74 Calm 30.45 1031 7 11 0.00 0.00
10:15 am 10:15 Cloudy with Light Snow 21 -6.3 13 -10.4 73 73 Calm 30.45 1031 5 8 0.00 0.00
10:35 am 10:35 Cloudy with Light Snow 21 -5.9 14 -9.8 74 74 Calm 30.45 1031 3 5 0.00 0.00
10:55 am 10:55 Cloudy with Light Snow 22 -5.6 15 -9.5 74 74 Calm 30.42 1030 2 3 0.00 0.00
11:15 am 11:15 Cloudy with Light Snow 23 -5.2 15 -9.2 74 74 WSW 5 7 30.42 1030 3 5 0.00 0.00
11:35 am 11:35 Cloudy with Light Snow 24 -4.2 15 -9.5 67 67 WNW 7 11 30.39 1029 10 16 0.00 0.00
11:55 am 11:55 Cloudy with Light Snow 24 -4.2 14 -10 64 64 NW 9 15 30.39 1029 10 16 0.00 0.00
12:15 pm 12:15 Cloudy 24 -4.2 14 -10 64 64 WNW 7 11 30.39 1029 10 16 0.00 0.00
12:35 pm 12:35 Cloudy with Light Snow 24 -4.2 13 -10.3 63 63 W 7 11 30.39 1029 10 16 0.00 0.00
12:55 pm 12:55 Cloudy with Light Snow 24 -4.2 14 -10 64 64 WNW 5 7 30.36 1028 10 16 0.00 0.00
1:15 pm 13:15 Cloudy 24 -4.2 14 -10.1 64 64 Calm 30.36 1028 10 16 0.00 0.00
1:35 pm 13:35 Cloudy with Light Snow 24 -4.2 14 -10.1 64 64 W 5 7 30.36 1028 10 16 0.00 0.00
1:55 pm 13:55 Cloudy 26 -3.1 15 -9.4 62 62 WSW 6 9 30.36 1028 10 16 0.00 0.00
2:15 pm 14:15 Mostly Cloudy 24 -4.2 13 -10.6 61 61 WNW 5 7 30.33 1027 10 16 0.00 0.00
2:35 pm 14:35 Partly Cloudy 26 -3.2 14 -10.2 59 59 WNW 5 7 30.33 1027 10 16 0.00 0.00
2:55 pm 14:55 Partly Cloudy 27 -2.8 15 -9.7 59 59 N 6 9 30.33 1027 10 16 0.00 0.00
3:15 pm 15:15 Partly Cloudy 27 -2.8 14 -10.1 58 58 W 5 7 30.33 1027 10 16 0.00 0.00
3:35 pm 15:35 Sunny 27 -2.8 13 -10.3 57 57 Calm 30.33 1027 10 16 0.00 0.00
3:55 pm 15:55 Sunny 29 -1.5 15 -9.3 56 56 Calm 30.33 1027 10 16 0.00 0.00
4:15 pm 16:15 Sunny 29 -1.5 16 -9 57 57 Calm 30.33 1027 10 16 0.00 0.00
4:35 pm 16:35 Sunny 27 -2.8 14 -9.9 58 58 Calm 30.33 1027 10 16 0.00 0.00
4:55 pm 16:55 Sunny 27 -2.8 14 -9.8 59 59 Calm 30.33 1027 10 16 0.00 0.00
5:15 pm 17:15 Sunny 27 -2.8 15 -9.6 60 60 Calm 30.33 1027 10 16 0.00 0.00
5:35 pm 17:35 Sunny 27 -2.8 15 -9.4 61 61 Calm 30.33 1027 10 16 0.00 0.00
5:55 pm 17:55 Clear 27 -2.8 15 -9.5 60 60 Calm 30.33 1027 10 16 0.00 0.00
6:15 pm 18:15 Clear 25 -4.1 14 -10.2 63 63 Calm 30.33 1027 10 16 0.00 0.00
6:35 pm 18:35 Clear 24 -4.2 14 -10 64 64 Calm 30.33 1027 10 16 0.00 0.00
6:55 pm 18:55 Clear 23 -5.2 14 -9.9 70 70 Calm 30.39 1029 10 16 0.00 0.00
7:15 pm 19:15 Clear 22 -5.5 14 -10.2 70 70 NNE 3 6 30.36 1028 10 16 0.00 0.00
7:35 pm 19:35 Clear 22 -5.4 13 -10.4 68 68 Calm 30.36 1028 10 16 0.00 0.00
7:55 pm 19:55 Mostly Cloudy 22 -5.6 14 -9.8 73 73 Calm 30.39 1029 10 16 0.00 0.00
8:15 pm 20:15 Cloudy 21 -5.9 16 -9.1 78 78 Calm 30.36 1028 10 16 0.00 0.00
8:35 pm 20:35 Cloudy 22 -5.6 16 -9.1 77 77 Calm 30.36 1028 10 16 0.00 0.00
8:55 pm 20:55 Cloudy 22 -5.5 14 -9.8 72 72 Calm 30.36 1028 10 16 0.00 0.00
9:15 pm 21:15 Cloudy 22 -5.6 14 -10.1 71 71 Calm 30.36 1028 10 16 0.00 0.00
9:35 pm 21:35 Cloudy 22 -5.5 14 -10 71 71 Calm 30.36 1028 10 16 0.00 0.00
9:55 pm 21:55 Cloudy 22 -5.4 14 -10 70 70 Calm 30.36 1028 10 16 0.00 0.00
10:15 pm 22:15 Cloudy 22 -5.5 14 -9.8 72 72 Calm 30.36 1028 10 16 0.00 0.00
10:35 pm 22:35 Cloudy 22 -5.5 15 -9.2 75 75 Calm 30.36 1028 10 16 0.00 0.00
10:55 pm 22:55 Cloudy 22 -5.5 16 -8.7 78 78 Calm 30.36 1028 10 16 0.00 0.00
11:15 pm 23:15 Cloudy 22 -5.6 16 -8.8 78 78 Calm 30.36 1028 10 16 0.00 0.00
11:35 pm 23:35 Cloudy 22 -5.6 16 -9.1 77 77 Calm 30.36 1028 10 16 0.00 0.00
11:55 pm 23:55 Mostly Cloudy 22 -5.6 16 -9 77 77 Calm 30.33 1027 10 16 0.00 0.00

Powered by AerisWeather